SCP
2 2 2 2 3 3 4 4 3 3 2 2 2 1 1 1 1 1 1 1 1 1 1 1 1 1 1 1 1 1 1 1 1 0 0 0 0 0 1 1 1 1 1
2 2 2 3 3 3 4 4 3 3 2 2 2 2 1 1 1 1 1 1 1 1 1 1 1 1 1 1 1 1 1 1 1 1 0 0 0 0 0 1 1 1 1
2 2 2 3 3 3 4 4 3 3 3 3 2 2 2 2 2 1 1 1 2 2 1 1 1 1 1 1 1 1 1 1 1 1 1 0 0 0 0 0 1 1 1
1 2 2 3 3 3 3 4 4 4 3 3 3 2 2 2 2 2 2 2 2 2 2 2 2 1 1 1 1 1 1 1 1 1 1 1 1 1 0 0 0 1 1
1 1 2 3 3 3 3 4 5 4 4 3 3 3 2 2 2 2 2 2 2 2 2 2 2 2 2 1 1 1 1 1 1 1 1 1 1 1 1 0 0 0 0
1 1 1 2 3 3 3 4 5 5 4 4 3 3 3 2 3 3 2 2 2 2 2 2 2 2 2 1 1 1 1 1 1 1 1 1 1 1 1 1 0 0 0
1 1 1 2 3 3 3 4 4 5 5 4 3 3 3 3 3 3 3 2 2 2 2 2 2 1 1 1 1 1 1 1 1 1 1 1 1 1 1 1 0 0 0
1 1 1 2 3 3 4 4 4 4 4 4 4 3 3 3 3 3 3 3 2 2 2 2 1 1 1 1 1 1 1 1 1 1 1 1 1 1 1 1 1 0 0
1 1 2 2 3 3 3 4 4 4 4 4 4 3 3 3 4 4 3 3 3 2 2 2 1 1 1 1 1 1 1 1 1 1 1 1 1 1 1 1 1 0 0
2 2 2 2 3 3 3 4 4 4 4 4 3 3 3 4 4 4 3 3 3 2 2 2 1 1 1 1 1 1 1 1 1 1 1 1 1 1 1 1 1 1 1
2 2 3 3 3 3 3 3 4 4 4 4 3 3 3 3 4 4 3 3 3 2 2 2 1 1 1 1 1 1 1 1 1 1 1 1 1 1 1 1 1 1 1
3 3 3 2 2 2 3 3 3 3 3 3 3 3 3 3 3 3 3 3 2 2 2 1 1 1 1 1 1 1 1 1 1 1 1 1 1 1 1 1 1 1 1
2 2 2 2 2 2 2 3 3 3 3 3 3 3 3 3 2 2 2 2 2 2 1 1 1 1 1 1 1 1 0 0 1 1 1 0 1 1 1 1 1 1 1
2 2 2 2 1 1 2 2 2 2 2 2 2 2 2 2 2 2 1 1 1 1 1 1 1 1 1 0 1 1 0 0 0 0 0 0 0 0 0 0 0 0 0
1 1 1 1 1 1 1 1 1 1 1 1 1 1 1 1 1 1 1 1 1 1 1 1 1 1 1 0 0 0 1 1 1 1 0 0 0 0 0 0 0 0 0
1 1 1 1 1 1 1 1 1 1 1 1 1 1 1 1 1 1 1 1 1 1 1 1 1 1 0 0 0 0 0 1 1 1 1 0 0 0 0 0 0 0 0
0 0 1 1 1 1 1 1 1 1 1 1 1 1 1 1 1 1 1 1 1 1 1 1 1 1 0 0 0 0 0 1 1 1 1 0 0 0 0 0 0 0 0
0 0 1 1 1 1 1 1 1 1 1 1 1 1 1 1 1 1 1 1 1 1 1 1 1 1 0 0 0 0 0 1 1 1 1 1 0 0 0 0 0 0 0
0 0 1 1 1 1 1 1 1 1 1 1 1 1 1 1 1 1 1 1 1 1 1 1 1 1 0 0 0 0 0 1 1 1 1 1 0 0 0 0 0 0 0
0 0 1 1 1 1 1 1 1 1 1 1 1 1 1 1 1 1 1 1 1 0 0 0 0 0 0 0 0 0 0 0 1 1 1 0 0 0 0 0 0 0 0
0 1 1 1 1 1 1 1 1 1 1 1 1 1 1 1 1 1 1 0 0 0 0 0 0 0 0 0 0 0 0 0 1 1 1 0 0 0 0 0 0 0 0
1 1 1 1 1 0 0 0 1 1 1 1 0 0 0 0 0 0 0 0 0 0 0 0 0 0 0 0 0 0 0 0 0 0 0 0 0 0 0 0 0 0 0
1 1 1 1 1 0 0 0 0 0 0 0 0 0 0 0 0 0 0 0 0 0 0 0 0 0 0 0 0 0 0 0 0 0 0 0 0 0 0 0 0 0 0
1 1 1 1 1 0 0 0 0 0 0 0 0 0 0 0 0 0 0 0 0 0 0 0 0 0 0 0 0 0 0 0 0 0 0 0 0 0 0 0 0 0 0
0 0 0 0 0 0 0 0 0 0 0 0 0 0 0 0 0 0 0 0 0 0 0 0 0 0 0 0 0 0 0 0 0 0 0 0 0 0 0 0 0 0 0
0 0 0 0 0 0 0 0 0 0 0 0 0 0 0 0 0 0 0 0 0 0 0 0 0 0 0 0 0 0 0 0 0 0 0 0 0 0 0 0 0 0 0
Wind_Speed
7 7 7 8 8 7 7 7 6 5 5 4 3 3 3 2 2 2 2 2 2 2 1 1 2 1 1 1 1 1 2 2 1 1 1 2 3 3 3 3 3 4 4
8 8 7 7 7 7 7 6 5 5 4 3 2 2 3 2 2 2 3 3 2 2 2 2 2 2 2 2 2 2 1 2 2 2 1 1 2 2 4 3 3 3 4
8 9 8 7 8 7 7 6 6 5 5 4 3 2 2 2 2 3 3 3 2 2 2 2 2 2 2 2 2 2 3 2 2 2 2 1 1 1 1 2 2 3 3
7 8 9 8 8 7 7 6 6 4 4 4 3 4 3 3 2 2 2 3 3 2 2 1 2 1 1 2 2 2 2 2 2 2 1 1 1 1 1 1 1 2 3
7 7 9 9 8 8 7 7 6 5 4 3 3 2 2 2 2 2 3 2 2 2 2 2 1 1 1 2 2 2 2 2 2 2 1 1 1 1 2 2 2 2 2
7 7 6 7 7 7 7 7 6 5 5 4 3 2 2 2 2 2 2 2 2 2 2 2 1 1 2 2 2 2 3 2 2 2 1 1 1 2 2 2 3 2 2
6 6 6 6 6 7 7 7 7 5 5 4 4 2 2 2 2 2 2 2 2 2 2 1 1 1 2 2 2 2 2 3 3 2 2 2 2 1 1 2 2 1 1
5 6 5 5 5 6 6 7 7 6 5 5 4 3 3 2 2 1 1 2 1 1 2 2 1 1 2 2 2 2 2 2 3 3 2 2 2 1 2 2 2 1 1
4 6 5 5 5 5 4 5 6 5 5 5 4 4 4 2 2 2 2 1 1 1 2 2 2 2 2 2 2 2 2 1 2 2 2 2 2 2 2 1 2 2 2
5 6 5 5 5 5 4 4 5 5 5 5 4 4 3 3 2 2 2 1 1 1 1 2 2 2 2 2 2 2 2 2 2 2 2 2 2 2 1 1 2 2 2
5 5 5 5 5 5 5 4 4 5 4 4 4 3 3 3 2 2 1 1 1 1 2 2 2 2 2 2 2 2 2 3 3 2 2 2 2 2 2 2 2 2 2
3 4 5 4 4 4 5 4 4 4 4 4 3 2 2 2 2 2 1 1 1 1 2 2 2 2 2 2 2 2 2 2 2 2 2 2 2 2 2 2 2 2 2
3 3 4 4 3 3 4 4 4 4 4 4 4 3 2 2 1 1 1 1 2 2 2 2 2 2 2 2 2 2 2 2 2 2 2 2 2 2 2 2 2 2 2
4 3 3 3 2 2 3 3 3 3 3 3 4 3 3 2 1 1 2 2 2 3 2 2 2 1 1 1 1 2 2 2 2 2 2 2 2 2 2 2 2 2 2
3 3 2 2 1 2 2 2 2 2 2 2 3 3 2 2 2 1 1 2 2 3 2 2 2 2 2 1 1 1 2 2 2 2 2 2 2 2 2 2 1 2 2
3 2 1 1 1 1 1 2 2 2 2 2 2 3 2 2 2 1 1 1 1 1 2 2 2 2 1 2 2 0 1 1 2 2 2 3 3 3 4 3 3 3 3
3 3 2 1 1 0 1 1 2 2 2 2 2 2 2 2 2 2 1 1 1 1 1 1 1 1 2 2 2 1 2 2 2 2 2 3 2 2 2 3 4 3 4
3 3 2 1 0 1 1 1 2 3 3 3 2 2 2 2 1 1 1 1 1 1 1 1 2 2 2 2 2 0 2 3 3 3 2 2 1 1 0 2 2 2 2
4 3 2 1 2 1 1 1 2 3 3 3 2 3 2 2 1 1 1 1 1 1 1 2 2 2 2 3 3 1 2 2 3 3 2 2 2 2 1 1 2 1 2
4 4 3 3 3 2 1 1 2 2 2 2 1 1 1 1 1 1 1 1 1 1 2 2 2 2 3 4 4 3 2 2 2 2 2 2 2 3 2 1 2 3 2
4 4 3 3 3 2 2 1 1 0 1 1 1 1 1 2 2 2 2 2 2 2 3 3 2 2 3 5 5 4 2 2 2 2 1 1 3 3 3 3 3 4 3
5 4 4 4 3 3 2 2 2 1 0 0 1 0 0 1 1 2 2 2 3 3 4 3 3 2 3 4 5 6 5 4 3 2 1 1 3 3 4 4 5 5 4
4 4 4 4 3 3 3 2 2 2 1 1 1 1 1 0 1 1 2 2 2 2 2 2 2 2 2 3 4 5 6 5 3 2 2 2 4 4 4 6 6 5 4
3 3 3 3 3 3 2 2 2 2 2 2 1 1 0 0 0 0 1 1 1 1 1 1 1 1 1 2 2 2 3 3 2 2 2 4 5 5 4 4 4 4 3
2 2 2 2 2 2 2 2 2 2 2 2 1 1 1 0 1 1 0 1 0 0 1 1 1 0 0 1 2 2 1 1 1 1 2 2 2 2 2 2 2 2 2
1 1 1 2 2 2 2 2 2 2 2 2 1 1 1 0 1 1 0 1 1 2 1 1 1 0 2 2 2 2 2 2 1 1 2 2 2 2 2 2 2 2 2
Wind_Direction
142 139 142 141 138 136 140 145 148 148 151 158 163 164 163 158 155 145 138 151 176 198 209 223 208 239 210 201 188 183 192 196 188 196 216 209 208 193 179 183 178 180 176
148 142 140 140 144 143 144 140 146 153 164 154 152 169 162 167 159 144 146 153 174 202 199 224 216 200 212 199 204 191 206 206 187 189 195 211 219 210 196 182 188 189 175
160 154 155 150 146 146 150 153 153 162 168 158 162 160 151 168 161 160 158 165 182 198 214 211 236 217 211 204 208 208 203 220 226 203 194 195 201 181 189 199 193 191 190
165 160 160 160 159 158 153 142 142 150 152 159 159 166 175 177 172 162 157 169 181 195 198 203 230 235 226 208 217 195 224 218 231 236 233 220 118 165 168 215 199 206 202
172 166 165 161 164 161 153 144 138 149 151 161 158 167 169 163 153 147 144 162 176 184 185 182 203 225 232 216 228 201 213 223 229 234 234 234 216 217 187 199 203 211 203
165 158 150 150 160 159 152 148 145 147 153 164 156 168 159 161 160 160 157 171 179 177 182 186 188 213 228 221 223 218 212 224 237 242 238 218 212 210 203 208 205 205 203
149 138 136 140 151 157 153 149 148 152 156 163 162 175 177 189 177 177 174 182 187 173 175 185 195 215 223 221 212 224 223 228 231 233 240 240 243 232 227 199 223 228 212
141 140 141 140 146 142 144 147 151 156 161 163 169 176 191 207 186 185 200 191 203 182 172 182 189 213 223 229 210 220 220 221 226 234 239 254 257 241 230 210 204 236 243
151 141 143 137 137 138 138 144 150 157 169 172 175 182 185 192 188 202 212 177 189 190 149 183 195 209 220 225 219 211 216 217 220 233 235 242 263 260 252 239 218 213 236
145 138 145 136 129 129 131 144 153 165 171 173 184 180 187 197 189 195 183 173 176 162 171 185 199 208 209 215 213 212 207 208 218 221 226 234 260 281 264 245 246 228 224
139 143 143 137 135 143 151 154 157 162 170 176 181 181 185 192 186 194 181 170 172 184 194 202 203 206 208 208 216 223 210 213 210 218 217 224 231 260 278 273 257 245 227
134 139 138 135 138 150 154 158 165 169 173 174 175 171 181 186 187 192 186 183 180 198 200 205 210 218 215 209 221 230 231 222 211 213 216 236 233 233 260 265 257 253 240
98 99 115 119 131 143 148 156 164 172 179 176 169 153 159 165 183 179 199 216 204 208 215 210 217 219 222 219 220 214 228 230 228 225 220 228 232 230 243 267 270 255 255
85 81 78 96 116 113 129 148 152 158 171 168 164 163 168 160 182 190 198 215 220 218 215 217 216 212 212 218 233 234 226 223 233 234 225 234 233 231 233 243 257 273 280
70 63 61 62 77 98 111 141 149 151 155 167 170 164 165 166 184 193 213 223 229 228 216 220 207 201 205 207 209 249 234 226 225 231 226 230 216 199 217 243 244 262 266
37 23 48 64 34 104 152 150 150 152 165 181 186 167 169 177 194 205 216 227 248 251 234 227 213 213 211 103 93 350 256 245 235 236 239 232 210 196 203 218 223 233 244
7 1 10 7 334 274 148 154 163 166 178 187 189 180 178 193 202 220 204 219 248 252 247 240 215 170 135 129 104 46 289 258 244 241 236 250 234 195 216 216 215 229 244
0 356 352 341 358 77 125 165 184 180 187 193 201 197 199 201 173 169 187 212 245 261 264 245 222 186 164 146 140 320 267 265 251 239 232 227 217 192 228 248 232 244 262
3 358 359 88 102 99 126 189 202 192 199 199 202 205 207 193 170 180 183 192 225 254 264 260 237 192 159 169 165 178 263 266 262 240 232 219 159 142 165 261 251 257 272
15 18 30 63 72 73 94 196 218 191 202 213 210 165 165 167 184 186 182 196 220 243 253 255 254 188 167 166 163 181 241 260 269 253 210 179 168 162 161 236 260 254 262
26 28 41 62 57 54 70 54 27 101 213 230 147 130 164 185 190 179 181 202 220 227 232 231 237 192 170 163 170 186 233 254 257 257 238 153 163 189 218 233 242 247 263
34 30 41 51 43 38 46 44 21 15 16 71 89 94 203 224 181 167 191 209 220 229 226 218 220 201 170 166 185 199 220 251 261 264 270 151 183 218 237 241 239 247 258
31 24 29 48 45 37 35 32 15 11 45 76 82 17 317 287 213 189 199 231 237 245 230 211 212 198 166 165 184 207 231 249 254 280 314 276 247 239 234 230 236 240 238
30 26 35 49 43 38 34 32 22 22 55 70 58 52 329 220 213 218 224 231 233 248 263 260 248 205 145 133 161 215 235 243 244 262 272 257 242 244 247 237 233 231 237
29 25 32 41 54 44 37 32 35 35 41 52 39 9 313 230 159 210 268 243 328 223 252 289 294 259 244 189 176 205 233 258 288 288 254 240 229 226 234 235 228 224 227
26 33 28 27 51 56 48 51 50 46 33 18 7 352 338 295 205 195 119 34 169 149 150 210 281 186 145 146 184 216 230 237 227 218 243 249 247 247 241 245 247 241 240